Weather History for Alexandria Esle, LA

Change the Weather History Date:

Wednesday, April 9, 2014

  Actual Average Record
Temperature  
Mean Temperature 56 °F -  
Max Temperature 75 °F 75 °F 88 °F (1999)
Min Temperature 39 °F 51 °F 35 °F (2003)
Degree Days  
Heating Degree Days 9    
Growing Degree Days 6 (Base 50)    
Moisture  
Dew Point 39 °F    
Average Humidity 62    
Maximum Humidity 97    
Minimum Humidity 23    
Precipitation  
Precipitation 0.00 in - - ()
Sea Level Pressure  
Sea Level Pressure 30.20 in    
Wind  
Wind Speed 3 mph (West)    
Max Wind Speed 7 mph    
Max Gust Speed -    
Visibility 10 miles    
Events      
Averages and records for this station are not official NWS values.
T = Trace of Precipitation, MM = Missing Value Source: NWS Daily Summary

Daily Weather History Graph

Daily Weather History Graph

Search for Another Location

Airport:

Trip Planner

Search our weather history database for the weather conditions in past years. The results will help you decide how hot, cold, wet, or windy it might be!

Date:

Astronomy

Apr. 09, 2014 Rise Set
Actual Time 6:48 AM CDT 7:33 PM CDT
Civil Twilight 6:23 AM CDT 7:58 PM CDT
Nautical Twilight 5:54 AM CDT 8:27 PM CDT
Astronomical Twilight 5:24 AM CDT 8:57 PM CDT
Moon 2:41 PM CDT (4/9) 3:17 AM CDT (4/9)
Length of Visible Light 13h 35m
Length of Day
12h 45m
Waxing Gibbous, 72% of the Moon is Illuminated
Apr 9
Waxing Gibbous
Apr 15
Full
Apr 22
Last Quarter
Apr 29
New
May 6
First Quarter

Hourly Weather History & Observations

Time (CDT) Temp. Windchill Dew Point Humidity Pressure Visibility Wind Dir Wind Speed Gust Speed Precip Events Conditions
12:53 AM 41.0 °F 39.0 °F 39.9 °F 96% 30.14 in 7.0 mi WNW 3.5 mph - N/A   Clear
1:53 AM 39.9 °F 35.8 °F 39.0 °F 97% 30.15 in 10.0 mi West 5.8 mph - N/A   Clear
2:53 AM 42.1 °F - 37.9 °F 85% 30.16 in 10.0 mi Calm Calm - N/A   Clear
3:53 AM 41.0 °F 39.0 °F 37.9 °F 89% 30.16 in 6.0 mi West 3.5 mph - N/A   Clear
4:53 AM 39.0 °F 36.8 °F 37.0 °F 93% 30.17 in 10.0 mi West 3.5 mph - N/A   Clear
5:53 AM 39.0 °F - 37.0 °F 93% 30.18 in 10.0 mi Calm Calm - N/A   Clear
6:53 AM 39.0 °F 36.8 °F 37.0 °F 93% 30.22 in 10.0 mi West 3.5 mph - N/A   Clear
7:53 AM 44.1 °F 41.5 °F 41.0 °F 89% 30.24 in 10.0 mi West 4.6 mph - N/A   Clear
8:53 AM 53.1 °F - 45.0 °F 74% 30.26 in 10.0 mi West 4.6 mph - N/A   Clear
9:53 AM 62.1 °F - 39.9 °F 44% 30.27 in 10.0 mi Variable 4.6 mph - N/A   Clear
10:53 AM 64.9 °F - 37.9 °F 37% 30.29 in 10.0 mi Calm Calm - N/A   Clear
11:53 AM 66.9 °F - 33.1 °F 28% 30.28 in 10.0 mi Variable 5.8 mph - N/A   Clear
12:53 PM 69.1 °F - 35.1 °F 29% 30.26 in 10.0 mi Variable 6.9 mph - N/A   Clear
1:53 PM 71.1 °F - 36.0 °F 28% 30.24 in 10.0 mi WSW 4.6 mph - N/A   Clear
2:53 PM 72.0 °F - 34.0 °F 25% 30.22 in 10.0 mi Variable 4.6 mph - N/A   Clear
3:53 PM 73.0 °F - 33.1 °F 23% 30.19 in 10.0 mi NNW 4.6 mph - N/A   Clear
4:53 PM 73.9 °F - 34.0 °F 23% 30.17 in 10.0 mi North - - N/A   Clear
5:53 PM 73.0 °F - 33.1 °F 23% 30.16 in 10.0 mi Calm Calm - N/A   Clear
6:53 PM 70.0 °F - 39.0 °F 32% 30.15 in 10.0 mi Calm Calm - N/A   Clear
7:53 PM 57.9 °F - 45.0 °F 62% 30.15 in 10.0 mi Calm Calm - N/A   Clear
8:53 PM 53.1 °F - 45.0 °F 74% 30.16 in 10.0 mi Calm Calm - N/A   Clear
9:53 PM 51.1 °F - 45.0 °F 80% 30.18 in 10.0 mi Calm Calm - N/A   Clear
10:53 PM 48.9 °F - 45.0 °F 86% 30.19 in 10.0 mi Calm Calm - N/A   Clear
11:53 PM 48.9 °F - 45.0 °F 86% 30.19 in 10.0 mi Calm Calm - N/A   Clear